Aeroporto :
LOGIN :

Iscrizione | Disclaimer

   EN    FR    IT 

 










Sommario :    VFR   VFR Marginale   IFR   IFR Intensivo   IFR Molto Intensivo
Visibilità : 
Base nubi : 
>= 8 km
>= 3000ft
5 / 8 km
1000 / 3000 ft
1500m / 5 km
500 / 1000 ft
800 / 1500m
200 / 500 ft
< 800m
< 200 ft
Simboli :   Temporali  Nebbia  Neve Forte  Precipitazioni Forti  Vento > 20 kt
SIGMETs :   Varie  Temporali  Ghiacco  Turbolenza  Onda orograficha  Ceneri Vulcaniche






- Altitudine del aeroporto : 465 ft
- Codice IATA : OMR


LROD - Oradea International

ULTIMO METAR :
  • 222200Z AUTO 10006KT 9999 NCD 15/10 Q1015

METARs OBSOLETI :
  • 222130Z AUTO 10007KT 9999 NCD 15/10 Q1015
  • 222100Z AUTO 11006KT 9999 NCD 14/10 Q1015
  • 222030Z AUTO 10005KT 9999 NCD 15/10 Q1015
  • 222000Z AUTO 11006KT 9999 NCD 15/10 Q1015

TAF TAF LROD
Valido dal 22 a 15 ore il 23 a 00 ore UTC


221400Z 2215/2300 VRB04KT CAVOK



MetMap, La meteo Aeronautica in un colpo d'occhio ! - Copyright ORBIFLY Dicembre 2007 - Disclaimer

ORBIFLY MET'MAP TEAM :

Programmazione e sviluppo : Alexandra Zaïnal
Concezione : Baudouin d'Aumeries
Aiuto per la programmazione : Marc-Olivier Méhu
Supporto tecnico e logistico : Manuel Goepfert
Aiuto per la traduzione : Arnaldo La Scala

Contatto : metmap@orbifly.com




FONTI E CREDITI :

   NOAA